This demonstration page uses our WeatherBlox Daily Observations layout. Learn more.

Hourly Observations for June 1, 2017

Temp ( °F °C ) Dew Point ( °F °C ) Humidity (%) Winds ( mph kmh ) Pressure ( in mb ) Visibility ( mi km ) Precip ( " mm )
12:15 am 00:15 Partly Cloudy 63 17 63 17 100 100 Calm 30 1016 10 16.09344 0 0
12:35 am 00:35 Clear 63 17 61 16 94 94 Calm 30 1016 10 16.09344 0 0
12:55 am 00:55 Clear 63 17 61 16 94 94 Calm 30 1016 10 16.09344 0 0
1:15 am 01:15 Clear 61 16 61 16 100 100 NNW 3 6 30 1016 10 16.09344 0 0
1:35 am 01:35 Clear with Nearby Thunderstorms 61 16 61 16 100 100 Calm 30.03 1017 10 16.09344 0 0
1:55 am 01:55 Clear 63 17 61 16 94 94 Calm 30 1016 10 16.09344 0 0
2:15 am 02:15 Clear 61 16 59 15 94 94 SW 3 6 30 1016 10 16.09344 0 0
2:35 am 02:35 Clear 61 16 59 15 94 94 SW 3 6 30 1016 10 16.09344 0 0
2:55 am 02:55 Clear 61 16 59 15 94 94 S 3 6 29.97 1015 10 16.09344 0 0
3:15 am 03:15 Clear 59 15 57 14 94 94 W 3 6 30 1016 10 16.09344 0 0
3:35 am 03:35 Clear 59 15 57 14 94 94 W 5 7 30 1016 10 16.09344 0 0
3:55 am 03:55 Clear 61 16 59 15 94 94 WNW 12 19 30 1016 10 16.09344 0 0
4:15 am 04:15 Clear 63 17 59 15 88 88 WSW 3 6 30 1016 10 16.09344 0 0
4:35 am 04:35 Clear 64 18 59 15 83 83 S 3 6 30 1016 10 16.09344 0 0
4:55 am 04:55 Mostly Cloudy 63 17 59 15 88 88 SW 6 9 30 1016 10 16.09344 0 0
5:15 am 05:15 Mostly Cloudy 61 16 59 15 94 94 Calm 30 1016 10 16.09344 0 0
5:35 am 05:35 Cloudy 63 17 59 15 88 88 Calm 30 1016 10 16.09344 0 0
5:55 am 05:55 Cloudy 63 17 59 15 88 88 Calm 30 1016 10 16.09344 0 0
6:15 am 06:15 Partly Cloudy 63 17 59 15 88 88 Calm 30 1016 10 16.09344 0 0
6:35 am 06:35 Sunny 61 16 59 15 94 94 Calm 30.03 1017 10 16.09344 0 0
6:55 am 06:55 Sunny 63 17 59 15 88 88 Calm 30.03 1017 10 16.09344 0 0
7:15 am 07:15 Sunny 64 18 59 15 83 83 SSW 3 6 30.03 1017 10 16.09344 0 0
7:35 am 07:35 Sunny 66 19 59 15 78 78 Calm 30.03 1017 10 16.09344 0 0
7:55 am 07:55 Sunny 68 20 59 15 73 73 Calm 30.03 1017 10 16.09344 0 0
8:15 am 08:15 Sunny 70 21 61 16 73 73 S 7 11 30.06 1018 10 16.09344 0 0
8:35 am 08:35 Sunny 70 21 61 16 73 73 Calm 30.06 1018 10 16.09344 0 0
8:55 am 08:55 Sunny 73 23 61 16 65 65 WNW 6 9 30.06 1018 10 16.09344 0 0
9:15 am 09:15 Sunny 73 23 61 16 65 65 WNW 8 13 30.06 1018 10 16.09344 0 0
9:35 am 09:35 Sunny 73 23 61 16 65 65 WNW 10 17 30.06 1018 10 16.09344 0 0
9:55 am 09:55 Sunny 75 24 59 15 57 57 W 10 17 30.06 1018 10 16.09344 0 0
10:15 am 10:15 Sunny 77 25 57 14 51 51 WNW 10 17 30.03 1017 10 16.09344 0 0
10:35 am 10:35 Sunny 77 25 57 14 51 51 NW 9 15 30.03 1017 10 16.09344 0 0
10:55 am 10:55 Sunny 77 25 55 13 47 47 W 9 15 30.03 1017 10 16.09344 0 0
11:15 am 11:15 Sunny 77 25 55 13 47 47 NW 14 22 30.03 1017 10 16.09344 0 0
11:35 am 11:35 Sunny 79 26 55 13 45 45 WNW 8 13 30.03 1017 10 16.09344 0 0
11:55 am 11:55 Partly Cloudy 79 26 54 12 42 42 WNW 9 15 30.03 1017 10 16.09344 0 0
12:15 pm 12:15 Partly Cloudy 79 26 55 13 45 45 NNW 5 7 30.03 1017 10 16.09344 0 0
12:35 pm 12:35 Partly Cloudy 79 26 55 13 45 45 WNW 9 15 30.03 1017 10 16.09344 0 0
12:55 pm 12:55 Partly Cloudy 79 26 59 15 51 51 WNW 13 20 30.03 1017 10 16.09344 0 0
1:15 pm 13:15 Sunny 79 26 57 14 48 48 NW 13 20 30.03 1017 10 16.09344 0 0
1:35 pm 13:35 Sunny 81 27 59 15 48 48 NW 13 20 30 1016 10 16.09344 0 0
1:55 pm 13:55 Sunny 81 27 55 13 42 42 WNW 9 15 30 1016 10 16.09344 0 0
2:15 pm 14:15 Sunny 81 27 55 13 42 42 NNW 14 22 30 1016 10 16.09344 0 0
2:35 pm 14:35 Sunny 81 27 55 13 42 42 NNW 14 22 30 1016 10 16.09344 0 0
2:55 pm 14:55 Sunny 81 27 55 13 42 42 WNW 15 24 30 1016 10 16.09344 0 0
3:15 pm 15:15 Sunny 81 27 55 13 42 42 WNW 13 20 30 1016 10 16.09344 0 0
3:35 pm 15:35 Sunny 81 27 54 12 39 39 NNW 13 20 29.97 1015 10 16.09344 0 0
3:55 pm 15:55 Sunny 81 27 54 12 39 39 WNW 13 20 29.97 1015 10 16.09344 0 0
4:15 pm 16:15 Sunny 81 27 52 11 37 37 NNW 13 20 29.97 1015 10 16.09344 0 0
4:35 pm 16:35 Sunny 81 27 54 12 39 39 NW 8 13 29.97 1015 10 16.09344 0 0
4:55 pm 16:55 Sunny 81 27 52 11 37 37 N 12 19 29.97 1015 10 16.09344 0 0
5:15 pm 17:15 Sunny 81 27 52 11 37 37 NNW 18 30 29.97 1015 10 16.09344 0 0
5:35 pm 17:35 Sunny 81 27 52 11 37 37 NW 14 22 29.97 1015 10 16.09344 0 0
5:55 pm 17:55 Sunny 81 27 50 10 34 34 N 17 28 29.97 1015 10 16.09344 0 0
6:15 pm 18:15 Sunny 81 27 50 10 34 34 NNW 12 19 29.97 1015 10 16.09344 0 0
6:35 pm 18:35 Sunny 79 26 48 9 34 34 NNW 12 19 29.97 1015 10 16.09344 0 0
6:55 pm 18:55 Sunny 79 26 50 10 37 37 NNW 15 24 29.97 1015 10 16.09344 0 0
7:35 pm 19:35 Sunny 77 25 50 10 39 39 NNW 6 9 29.97 1015 10 16.09344 0 0
7:55 pm 19:55 Sunny 72 22 61 16 69 69 SSW 8 13 29.97 1015 10 16.09344 0 0
8:15 pm 20:15 Sunny 75 24 50 10 41 41 N 3 6 29.97 1015 10 16.09344 0 0
8:35 pm 20:35 Clear 73 23 50 10 44 44 Calm 30 1016 10 16.09344 0 0
8:55 pm 20:55 Clear 72 22 54 12 53 53 Calm 30 1016 10 16.09344 0 0
9:15 pm 21:15 Clear 72 22 52 11 50 50 Calm 30 1016 10 16.09344 0 0
9:35 pm 21:35 Clear 72 22 52 11 50 50 ESE 5 7 30 1016 10 16.09344 0 0
9:55 pm 21:55 Clear 72 22 48 9 44 44 NNE 5 7 30.03 1017 10 16.09344 0 0
10:15 pm 22:15 Clear 72 22 48 9 44 44 N 6 9 30.03 1017 10 16.09344 0 0
10:35 pm 22:35 Clear 72 22 48 9 44 44 NNE 3 6 30.03 1017 10 16.09344 0 0
10:55 pm 22:55 Clear 68 20 52 11 56 56 Calm 30.03 1017 10 16.09344 0 0
11:15 pm 23:15 Clear 64 18 54 12 68 68 Calm 30.03 1017 10 16.09344 0 0
11:35 pm 23:35 Clear 64 18 54 12 68 68 NW 3 6 30.03 1017 10 16.09344 0 0
11:55 pm 23:55 Clear 63 17 54 12 73 73 Calm 30.03 1017 10 16.09344 0 0

Powered by AerisWeather